TimeAKDT,TemperatureF,Dew PointF,Humidity,Sea Level PressureIn,VisibilityMPH,Wind Direction,Wind SpeedMPH,Gust SpeedMPH,PrecipitationIn,Events,Conditions,WindDirDegrees,DateUTC
12:54 AM,61.0,57.0,87,29.83,10.0,ESE,9.2,16.1,N/A,,Overcast,110,2013-08-16 08:54:00
1:54 AM,61.0,57.0,87,29.83,10.0,East,9.2,21.9,N/A,,Overcast,80,2013-08-16 09:54:00
2:46 AM,60.8,57.2,88,29.82,10.0,East,8.1,-,N/A,,Overcast,90,2013-08-16 10:46:00
2:54 AM,60.1,57.0,90,29.83,10.0,East,8.1,-,N/A,,Overcast,90,2013-08-16 10:54:00
3:54 AM,60.1,57.0,90,29.82,10.0,ENE,10.4,16.1,N/A,,Overcast,70,2013-08-16 11:54:00
4:54 AM,60.1,57.0,90,29.81,10.0,East,8.1,-,N/A,,Overcast,80,2013-08-16 12:54:00
5:54 AM,59.0,57.0,93,29.82,10.0,East,9.2,-,0.00,,Overcast,100,2013-08-16 13:54:00
6:54 AM,59.0,57.0,93,29.81,10.0,East,9.2,-,0.00,,Overcast,80,2013-08-16 14:54:00
7:54 AM,59.0,55.9,90,29.82,10.0,East,8.1,18.4,0.00,Rain,Light Rain,90,2013-08-16 15:54:00
8:43 AM,57.2,55.4,94,29.82,10.0,East,9.2,17.3,0.00,Rain,Light Rain,80,2013-08-16 16:43:00
8:54 AM,59.0,55.9,90,29.83,10.0,ESE,5.8,16.1,0.00,,Overcast,110,2013-08-16 16:54:00
9:06 AM,59.0,55.4,88,29.82,10.0,East,8.1,-,N/A,,Overcast,100,2013-08-16 17:06:00
9:54 AM,59.0,55.9,90,29.83,7.0,Variable,6.9,-,0.02,Rain,Light Rain,0,2013-08-16 17:54:00
10:28 AM,59.0,55.4,88,29.82,10.0,Variable,6.9,16.1,0.01,Rain,Light Rain,0,2013-08-16 18:28:00
10:54 AM,57.9,57.0,97,29.83,6.0,Variable,6.9,-,0.03,Rain,Rain,0,2013-08-16 18:54:00
11:54 AM,59.0,57.0,93,29.84,6.0,ENE,9.2,-,0.16,Rain,Light Rain,70,2013-08-16 19:54:00
12:54 PM,59.0,57.0,93,29.84,10.0,Variable,4.6,-,0.00,Rain,Light Rain,0,2013-08-16 20:54:00
1:54 PM,60.1,57.0,90,29.84,10.0,East,8.1,-,0.01,Rain,Light Rain,80,2013-08-16 21:54:00
2:13 PM,60.8,57.2,88,29.83,10.0,East,6.9,-,0.00,Rain,Light Rain,80,2013-08-16 22:13:00
2:54 PM,60.1,57.0,90,29.83,10.0,ENE,9.2,-,0.00,Rain,Light Rain,70,2013-08-16 22:54:00
3:03 PM,60.8,57.2,88,29.82,10.0,ENE,11.5,20.7,0.00,Rain,Light Rain,70,2013-08-16 23:03:00
3:13 PM,60.8,57.2,88,29.82,10.0,East,8.1,-,0.00,,Overcast,90,2013-08-16 23:13:00
3:49 PM,60.8,57.2,88,29.82,10.0,East,10.4,19.6,0.00,,Overcast,80,2013-08-16 23:49:00
3:54 PM,61.0,57.0,87,29.83,10.0,East,9.2,-,0.00,,Overcast,80,2013-08-16 23:54:00
4:54 PM,60.1,55.9,86,29.82,10.0,East,6.9,-,N/A,,Overcast,80,2013-08-17 00:54:00
5:54 PM,60.1,55.0,83,29.82,10.0,NE,8.1,-,N/A,,Overcast,50,2013-08-17 01:54:00
6:54 PM,60.1,55.0,83,29.81,10.0,ENE,8.1,-,N/A,,Overcast,60,2013-08-17 02:54:00
7:54 PM,60.1,55.0,83,29.81,10.0,Variable,4.6,-,N/A,,Overcast,0,2013-08-17 03:54:00
8:54 PM,59.0,55.9,90,29.81,10.0,East,5.8,-,0.00,,Overcast,90,2013-08-17 04:54:00
9:54 PM,57.0,55.9,96,29.81,10.0,ENE,4.6,-,N/A,,Overcast,60,2013-08-17 05:54:00
10:44 PM,57.2,55.4,94,29.80,10.0,Calm,Calm,-,N/A,,Overcast,0,2013-08-17 06:44:00
10:54 PM,57.9,55.9,93,29.81,10.0,ESE,3.5,-,N/A,,Overcast,110,2013-08-17 06:54:00
11:39 PM,57.2,55.4,94,29.79,10.0,East,3.5,-,0.00,Rain,Light Rain,90,2013-08-17 07:39:00
11:54 PM,57.0,55.0,93,29.80,9.0,ESE,3.5,-,0.00,Rain,Light Rain,120,2013-08-17 07:54:00